Вернуться в каталог

CZ-6A DEB

АктивенPO
NORAD 61414·DEBRIS·🇨🇳 China

Запущен Aug 6, 2024 с Taiyuan Satellite Launch Center

Loading…

Ближайшие Пролёты (ближайшие 24 часа)

TLE

СвежийSource: Space-Track

Эпоха: Sep 14, 2026, 10:59 UTC

1 61414U 24140YF  26257.45832919  .00001619  00000-0  35970-3 0  9994
2 61414  88.9799 258.3281 0085730 317.3573  42.1002 14.54328426106723

Отслеживайте CZ-6A DEB в реальном времени с AllMySat

Download on the App Store